North Platte, NE

6:37 AM CST on December 12, 2017 (GMT -0600)
North Platte Regional-Bird

Weather History for KLBF - March, 2013

Change the Weather History Date:

Sunday, March 31, 2013

  Actual Average Record
Temperature  
Mean Temperature 50 °F 43 °F  
Max Temperature 71 °F 57 °F 88 °F (1946)
Min Temperature 28 °F 28 °F 3 °F (1899)
Degree Days  
Heating Degree Days 15 22  
Month to date heating degree days 873 836  
Since 1 July heating degree days 5833 5865  
Cooling Degree Days 0 0  
Month to date cooling degree days 0 0  
Year to date cooling degree days 0 0  
Moisture  
Dew Point 30 °F    
Average Humidity 57    
Maximum Humidity 92    
Minimum Humidity 22    
Precipitation  
Precipitation 0.00 in 0.05 in 0.75 in (1884)
Month to date precipitation 0.49 1.05  
Year to date precipitation 1.77 1.89  
Snow  
Snow 0.00 in 0.10 in 2.00 in (1890)
Month to date snowfall 2.7 4.4  
Since 1 July snowfall 22.6 25.3  
Snow Depth 0.00 in    
Sea Level Pressure  
Sea Level Pressure 30.04 in    
Wind  
Wind Speed 12 mph (WNW)    
Max Wind Speed 32 mph    
Max Gust Speed 41 mph    
Visibility 10 miles    
Events      
T = Trace of Precipitation, MM = Missing Value Source: NWS Daily Summary

Daily Weather History Graph

Daily Weather History Graph

Search for Another Location

Airport or City:

Trip Planner

Search our weather history database for the weather conditions in past years. The results will help you decide how hot, cold, wet, or windy it might be!

Date:

Astronomy

Mar. 31, 2013 Rise Set
Actual Time 7:27 AM CDT 8:07 PM CDT
Civil Twilight 6:59 AM CDT 8:34 PM CDT
Nautical Twilight 6:26 AM CDT 9:07 PM CDT
Astronomical Twilight 5:52 AM CDT 9:41 PM CDT
Moon 12:16 AM CDT (3/31) 10:14 AM CDT (3/31)
Length of Visible Light 13h 35m
Length of Day
12h 39m
Waning Gibbous, 77% of the Moon is Illuminated
Mar 31
Waning Gibbous
Apr 2
Last Quarter
Apr 10
New
Apr 18
First Quarter
Apr 25
Full

Hourly Weather History & Observations

Time (CDT) Temp. Windchill Dew Point Humidity Pressure Visibility Wind Dir Wind Speed Gust Speed Precip Events Conditions
12:53 AM 39.0 °F 32.8 °F 36.0 °F 89% 30.11 in 10.0 mi WNW 9.2 mph - N/A   Clear
1:53 AM 35.1 °F 29.3 °F 33.1 °F 92% 30.10 in 10.0 mi WNW 6.9 mph - N/A   Clear
2:53 AM 36.0 °F 29.6 °F 34.0 °F 93% 30.11 in 10.0 mi West 8.1 mph - N/A   Clear
3:53 AM 30.9 °F 26.2 °F 28.9 °F 92% 30.12 in 10.0 mi West 4.6 mph - N/A   Clear
4:53 AM 34.0 °F 27.2 °F 30.9 °F 89% 30.11 in 10.0 mi West 8.1 mph - N/A   Clear
5:53 AM 33.1 °F 26.1 °F 30.0 °F 89% 30.11 in 10.0 mi West 8.1 mph - N/A   Clear
6:53 AM 28.0 °F 21.7 °F 27.0 °F 96% 30.11 in 10.0 mi NW 5.8 mph - N/A   Clear
7:53 AM 28.0 °F 22.8 °F 26.1 °F 92% 30.12 in 10.0 mi WNW 4.6 mph - N/A   Clear
8:53 AM 36.0 °F 33.3 °F 32.0 °F 86% 30.11 in 10.0 mi WNW 3.5 mph - N/A   Clear
9:53 AM 42.1 °F 38.4 °F 35.1 °F 76% 30.09 in 10.0 mi West 5.8 mph - N/A   Clear
10:53 AM 46.9 °F - 33.1 °F 59% 30.06 in 10.0 mi WNW 4.6 mph - N/A   Clear
11:53 AM 53.1 °F - 30.0 °F 41% 30.04 in 10.0 mi WSW 6.9 mph - N/A   Clear
12:53 PM 59.0 °F - 34.0 °F 39% 30.01 in 10.0 mi WSW 13.8 mph - N/A   Clear
1:53 PM 62.1 °F - 32.0 °F 32% 29.98 in 10.0 mi WSW 16.1 mph 21.9 mph N/A   Clear
2:53 PM 64.9 °F - 32.0 °F 29% 29.93 in 10.0 mi WSW 17.3 mph 23.0 mph N/A   Clear
3:53 PM 66.0 °F - 33.1 °F 29% 29.90 in 10.0 mi West 9.2 mph - N/A   Partly Cloudy
4:53 PM 68.0 °F - 32.0 °F 26% 29.87 in 10.0 mi West 13.8 mph 20.7 mph N/A   Scattered Clouds
5:53 PM 71.1 °F - 30.0 °F 22% 29.85 in 10.0 mi NW 17.3 mph 23.0 mph N/A   Mostly Cloudy
6:53 PM 66.9 °F - 27.0 °F 22% 29.88 in 10.0 mi NW 23.0 mph 29.9 mph N/A   Overcast
7:38 PM 57.2 °F - 33.8 °F 41% 29.91 in 10.0 mi NNE 23.0 mph 34.5 mph N/A   Partly Cloudy
7:53 PM 55.0 °F - 33.1 °F 43% 29.96 in 10.0 mi NNE 27.6 mph 36.8 mph N/A   Partly Cloudy
8:53 PM 45.0 °F 35.4 °F 27.0 °F 49% 30.01 in 10.0 mi NE 28.8 mph 38.0 mph N/A   Clear
9:53 PM 39.9 °F 30.8 °F 21.9 °F 49% 30.10 in 10.0 mi NE 18.4 mph 26.5 mph N/A   Clear
10:53 PM 37.9 °F 30.5 °F 24.1 °F 57% 30.13 in 10.0 mi NE 11.5 mph 18.4 mph N/A   Partly Cloudy
11:53 PM 35.1 °F 29.3 °F 25.0 °F 67% 30.17 in 10.0 mi NE 6.9 mph - N/A   Partly Cloudy